Weather History for Plattsburgh, NY

Change the Weather History Date:

Friday, November 23, 2012

  Actual Average Record
Temperature  
Mean Temperature 39 °F 34 °F  
Max Temperature 55 °F 43 °F 65 °F (1953)
Min Temperature 23 °F 25 °F 6 °F (1989)
Degree Days  
Heating Degree Days 26 31  
Month to date heating degree days 651 619  
Since 1 July heating degree days 1309 1402  
Cooling Degree Days 0 0  
Month to date cooling degree days 0  
Year to date cooling degree days 346  
Moisture  
Dew Point 32 °F    
Average Humidity 67    
Maximum Humidity 92    
Minimum Humidity 41    
Precipitation  
Precipitation 0.04 in - 1.53 in (1992)
Month to date precipitation 0.41  
Year to date precipitation 24.52  
Sea Level Pressure  
Sea Level Pressure 29.74 in    
Wind  
Wind Speed 6 mph (SSE)    
Max Wind Speed 22 mph    
Max Gust Speed 30 mph    
Visibility 10 miles    
Events Rain    
T = Trace of Precipitation, MM = Missing Value Source: NWS Daily Summary

Daily Weather History Graph

Daily Weather History Graph

Search for Another Location

Airport:

Trip Planner

Search our weather history database for the weather conditions in past years. The results will help you decide how hot, cold, wet, or windy it might be!

Date:

Astronomy

Nov. 23, 2012 Rise Set
Actual Time 7:01 AM EST 4:18 PM EST
Civil Twilight 6:29 AM EST 4:51 PM EST
Nautical Twilight 5:53 AM EST 5:27 PM EST
Astronomical Twilight 5:18 AM EST 6:01 PM EST
Moon 1:40 PM EST (11/23) 2:08 AM EST (11/23)
Length of Visible Light 10h 21m
Length of Day
9h 17m
Waxing Gibbous, 79% of the Moon is Illuminated
Nov 23
Waxing Gibbous
Nov 28
Full
Dec 6
Last Quarter
Dec 13
New
Dec 20
First Quarter

Hourly Weather History & Observations

Time (EST) Temp. Windchill Dew Point Humidity Pressure Visibility Wind Dir Wind Speed Gust Speed Precip Events Conditions
12:53 AM 28.0 °F - 26.1 °F 92% 30.00 in 10.0 mi Calm Calm - N/A   Clear
1:53 AM 27.0 °F - 25.0 °F 92% 29.99 in 10.0 mi Calm Calm - N/A   Clear
2:53 AM 27.0 °F - 24.1 °F 89% 29.98 in 10.0 mi Calm Calm - N/A   Clear
3:53 AM 26.1 °F - 23.0 °F 88% 29.95 in 10.0 mi Calm Calm - N/A   Clear
4:53 AM 26.1 °F - 24.1 °F 92% 29.93 in 10.0 mi Calm Calm - N/A   Clear
5:53 AM 25.0 °F - 23.0 °F 92% 29.89 in 10.0 mi Calm Calm - N/A   Clear
6:53 AM 24.1 °F - 21.0 °F 88% 29.87 in 10.0 mi Calm Calm - N/A   Clear
7:53 AM 30.0 °F 26.5 °F 26.1 °F 85% 29.86 in 10.0 mi SSW 3.5 mph - N/A   Clear
8:53 AM 33.1 °F - 28.9 °F 85% 29.83 in 10.0 mi Calm Calm - N/A   Clear
9:53 AM 46.0 °F 40.6 °F 33.1 °F 61% 29.79 in 10.0 mi SSE 11.5 mph - N/A   Clear
10:53 AM 48.9 °F - 33.1 °F 54% 29.75 in 10.0 mi SSE 16.1 mph 25.3 mph N/A   Clear
11:53 AM 53.1 °F - 33.1 °F 47% 29.70 in 10.0 mi SSE 13.8 mph 21.9 mph N/A   Clear
12:53 PM 52.0 °F - 32.0 °F 47% 29.65 in 10.0 mi SE 12.7 mph - N/A   Clear
1:53 PM 51.1 °F - 30.9 °F 46% 29.61 in 10.0 mi SSE 16.1 mph 24.2 mph N/A   Clear
2:53 PM 52.0 °F - 30.9 °F 45% 29.61 in 10.0 mi South 10.4 mph - N/A   Clear
3:53 PM 53.1 °F - 30.9 °F 43% 29.63 in 10.0 mi South 4.6 mph - N/A   Overcast
4:53 PM 54.0 °F - 34.0 °F 47% 29.64 in 10.0 mi Variable 5.8 mph - N/A   Overcast
5:53 PM 51.1 °F - 42.1 °F 71% 29.63 in 10.0 mi SSE 8.1 mph - 0.00 in Rain Light Rain
6:53 PM 51.1 °F - 39.9 °F 66% 29.61 in 10.0 mi SSE 9.2 mph - 0.00 in   Overcast
7:53 PM 48.0 °F - 41.0 °F 77% 29.60 in 10.0 mi SSE 4.6 mph - 0.00 in   Overcast
8:53 PM 46.9 °F - 44.1 °F 90% 29.62 in 9.0 mi Variable 3.5 mph - 0.00 in Rain Light Rain
9:16 PM 46.4 °F 45.2 °F 42.8 °F 87% 29.60 in 10.0 mi Variable 3.5 mph - 0.03 in Rain Light Rain
9:53 PM 45.0 °F - 42.1 °F 90% 29.60 in 10.0 mi Calm Calm - 0.04 in Rain Light Rain
10:53 PM 46.0 °F 43.1 °F 37.9 °F 73% 29.59 in 10.0 mi Variable 5.8 mph - 0.00 in   Overcast
11:53 PM 45.0 °F 41.8 °F 35.1 °F 68% 29.57 in 10.0 mi Variable 5.8 mph - N/A   Overcast